Location: Cruquius
(52.3348°N, 4.6319°E)
Time: 08:15:45
(UTC+00:00)

CZ-4B DEB - Pass Details

Date: 12 May 2021
Orbit: 408 x 414 km, 97.3° (Epoch: 20 June)

Event Time Altitude Azimuth Distance (km) Brightness Sun altitude
Exits shadow 21:23:35 26° 161° (SSE) 883 5.3 -13.5°
Maximum altitude 21:25:17 83° 78° (ENE) 433 4.2 -13.7°
Drops below altitude 10° 21:28:33 10° 348° (NNW) 1,522 8.3 -13.9°
Sets 21:30:34 0° 348° (NNW) 2,392 9.6 -14.1°
